�N����,����,�~����,�C��,���x,�C��,����,���ϕ���,�ő�u�ԕ���,�ő厞����,���˗�,�I�_���x,�n�����x,�ő啗���N��,DTYPE
"18/11/29","00:10",0.0,11.0,97.0,1014.0,340.6,0.7,1.3,336.1,0.00,10.6,13.2,"00:00:16",1
"18/11/29","00:20",0.0,10.9,97.0,1014.0,335.4,1.2,2.5,318.7,0.00,10.5,13.2,"00:19:36",1
"18/11/29","00:30",0.0,10.7,96.7,1013.3,338.8,1.1,1.8,338.0,0.00,10.2,13.1,"00:23:20",1
"18/11/29","00:40",0.0,10.2,96.7,1013.5,329.9,1.1,1.8,327.6,0.00,9.7,12.9,"00:33:36",1
"18/11/29","00:50",0.0,9.8,96.5,1013.3,324.0,0.5,0.6,278.9,0.00,9.3,12.7,"00:40:08",1
"18/11/29","01:00",0.0,9.6,97.8,1013.3,292.4,0.3,0.9,271.9,0.00,9.3,12.8,"00:53:40",1
"18/11/29","01:10",0.0,9.1,97.0,1013.0,328.2,1.3,1.8,317.3,0.00,8.7,12.6,"01:08:56",1
"18/11/29","01:20",0.0,8.9,97.9,1013.3,323.0,1.3,1.7,318.0,0.00,8.6,12.6,"01:10:16",1
"18/11/29","01:30",0.0,9.1,98.2,1013.0,303.7,1.2,1.7,315.1,0.00,8.9,12.6,"01:20:48",1
"18/11/29","01:40",0.0,9.2,97.0,1013.0,317.4,0.6,1.3,315.9,0.00,8.8,12.5,"01:38:46",1
"18/11/29","01:50",0.0,9.0,98.1,1013.0,311.9,1.0,1.3,328.5,0.00,8.8,12.4,"01:46:58",1
"18/11/29","02:00",0.0,9.1,97.9,1012.8,288.3,1.0,1.2,309.2,0.00,8.8,12.3,"01:51:28",1
"18/11/29","02:10",0.0,9.1,98.2,1012.6,335.2,1.1,1.6,335.7,0.00,8.9,12.3,"02:02:10",1
"18/11/29","02:20",0.0,8.9,97.5,1012.8,325.3,1.1,1.7,341.0,0.00,8.6,12.2,"02:14:02",1
"18/11/29","02:30",0.0,8.6,98.3,1012.8,305.2,1.0,2.2,337.7,0.00,8.4,12.2,"02:25:22",1
"18/11/29","02:40",0.0,8.7,98.3,1012.8,315.1,0.8,1.9,315.5,0.00,8.5,12.2,"02:34:38",1
"18/11/29","02:50",0.0,8.7,97.8,1012.8,329.0,1.3,2.4,331.7,0.00,8.4,12.1,"02:43:12",1
"18/11/29","03:00",0.0,8.9,98.3,1013.0,335.1,1.1,1.8,315.7,0.00,8.7,12.2,"02:51:50",1
"18/11/29","03:10",0.0,8.8,97.7,1012.6,320.8,1.3,1.7,332.1,0.00,8.5,11.8,"03:01:36",1
"18/11/29","03:20",0.0,9.6,98.5,1012.8,336.3,2.0,3.6,320.9,0.00,9.4,12.0,"03:18:42",1
"18/11/29","03:30",0.2,9.7,97.4,1013.0,316.2,1.8,3.6,335.0,0.00,9.3,11.9,"03:20:24",1
"18/11/29","03:40",0.0,9.3,97.5,1012.8,332.5,1.1,2.2,338.3,0.00,9.0,12.1,"03:39:28",1
"18/11/29","03:50",0.0,9.1,98.7,1013.0,296.2,1.1,1.7,322.1,0.00,8.9,11.7,"03:44:52",1
"18/11/29","04:00",0.0,9.0,97.8,1012.8,337.3,1.0,2.0,341.0,0.00,8.7,11.9,"03:50:24",1
"18/11/29","04:10",0.0,8.5,98.2,1013.0,306.4,0.8,1.7,345.1,0.00,8.3,11.9,"04:01:54",1
"18/11/29","04:20",0.0,8.4,97.7,1013.5,321.7,1.0,2.1,326.9,0.00,8.1,11.7,"04:14:40",1
"18/11/29","04:30",0.0,7.9,98.5,1013.3,312.7,1.2,2.0,320.1,0.00,7.7,11.5,"04:24:42",1
"18/11/29","04:40",0.0,7.9,98.3,1013.3,314.9,1.5,2.1,325.0,0.00,7.7,11.7,"04:33:44",1
"18/11/29","04:50",0.0,8.5,98.8,1013.8,317.1,1.5,2.6,342.6,0.00,8.4,11.5,"04:49:30",1
"18/11/29","05:00",0.0,9.2,98.1,1013.8,330.7,1.3,2.2,328.0,0.00,9.0,11.7,"04:55:46",1
"18/11/29","05:10",0.0,9.3,97.4,1014.0,328.2,1.3,2.2,337.5,0.00,8.9,11.7,"05:01:36",1
"18/11/29","05:20",0.0,9.0,98.0,1014.0,328.1,1.3,2.1,336.3,0.00,8.7,11.4,"05:18:00",1
"18/11/29","05:30",0.0,8.8,97.6,1013.8,323.4,1.3,2.2,334.5,0.00,8.5,11.5,"05:29:58",1
"18/11/29","05:40",0.0,8.4,97.9,1014.2,316.8,0.8,2.1,334.1,0.00,8.1,11.5,"05:30:26",1
"18/11/29","05:50",0.0,8.0,98.1,1014.5,297.2,1.1,1.7,336.4,0.00,7.8,11.3,"05:43:36",1
"18/11/29","06:00",0.0,8.3,98.4,1014.7,304.9,1.5,2.5,336.6,0.00,8.1,11.4,"05:58:12",1
"18/11/29","06:10",0.0,8.3,98.0,1014.5,333.0,1.5,2.2,319.3,0.00,8.0,11.2,"06:07:22",1
"18/11/29","06:20",0.0,8.3,97.8,1014.9,330.6,1.7,2.4,334.5,0.00,8.0,11.3,"06:13:32",1
"18/11/29","06:30",0.0,8.1,98.3,1014.9,327.5,1.5,2.1,330.8,0.00,7.9,11.3,"06:29:58",1
"18/11/29","06:40",0.0,8.2,98.0,1015.4,331.6,1.8,2.9,337.9,0.00,7.9,11.2,"06:36:08",1
"18/11/29","06:50",0.0,8.2,98.0,1015.6,327.3,1.6,2.4,334.8,0.00,7.9,11.2,"06:42:44",1
"18/11/29","07:00",0.0,8.2,98.0,1015.4,330.4,1.8,2.9,339.1,0.00,7.9,11.2,"06:56:02",1
"18/11/29","07:10",0.0,8.2,98.0,1015.4,327.4,1.6,2.2,331.3,0.00,7.9,11.1,"07:02:18",1
"18/11/29","07:20",0.0,8.5,98.0,1015.9,329.9,1.8,2.5,336.9,0.00,8.2,11.2,"07:18:36",1
"18/11/29","07:30",0.0,8.7,97.6,1016.4,337.7,1.8,3.3,347.8,0.00,8.4,11.1,"07:23:58",1
"18/11/29","07:40",0.0,8.6,98.5,1016.6,324.4,1.7,2.7,324.4,0.00,8.4,11.2,"07:37:36",1
"18/11/29","07:50",0.0,8.9,97.5,1015.9,328.1,1.6,2.6,338.1,0.00,8.6,11.2,"07:41:28",1
"18/11/29","08:00",0.0,8.8,97.8,1016.6,301.7,0.8,1.9,324.9,0.01,8.5,11.1,"07:51:04",1
"18/11/29","08:10",0.0,8.9,98.1,1016.4,312.0,1.2,1.4,323.6,0.02,8.7,11.2,"08:07:04",1
"18/11/29","08:20",0.0,9.0,97.6,1016.6,308.1,1.2,1.6,318.0,0.02,8.7,11.2,"08:12:08",1
"18/11/29","08:30",0.0,9.1,98.2,1016.8,326.8,1.1,1.8,342.5,0.03,8.9,11.2,"08:21:12",1
"18/11/29","08:40",0.0,9.4,97.5,1016.6,14.1,0.5,1.1,99.8,0.06,9.1,11.3,"08:33:36",1
"18/11/29","08:50",0.0,10.1,97.7,1017.1,252.4,0.7,1.3,237.7,0.09,9.8,11.5,"08:48:08",1
"18/11/29","09:00",0.0,10.5,97.1,1017.5,233.3,1.1,2.1,233.1,0.11,10.1,11.3,"08:57:12",1
"18/11/29","09:10",0.0,10.8,96.2,1017.8,207.4,0.8,2.1,231.6,0.13,10.3,11.6,"09:00:32",1
"18/11/29","09:20",0.0,11.0,95.0,1017.3,133.6,0.7,1.8,101.4,0.16,10.3,11.6,"09:11:52",1
"18/11/29","09:30",0.0,11.7,92.9,1017.3,161.0,0.6,1.4,108.8,0.18,10.6,11.9,"09:22:08",1
"18/11/29","09:40",0.0,12.1,91.3,1017.5,177.4,0.6,2.2,99.2,0.20,10.8,11.9,"09:33:12",1
"18/11/29","09:50",0.0,12.3,89.0,1017.3,198.8,0.6,1.7,133.9,0.23,10.6,12.1,"09:44:48",1
"18/11/29","10:00",0.0,12.8,88.4,1017.8,148.6,0.8,1.9,157.4,0.25,11.0,12.3,"09:58:08",1
"18/11/29","10:10",0.0,13.0,86.3,1017.5,185.5,1.0,2.8,228.8,0.29,10.8,12.4,"10:08:00",1
"18/11/29","10:20",0.0,13.4,81.3,1017.8,157.2,1.1,2.1,137.1,0.31,10.3,12.7,"10:13:44",1
"18/11/29","10:30",0.0,13.9,79.4,1017.8,78.4,1.0,1.8,29.8,0.33,10.4,12.8,"10:26:56",1
"18/11/29","10:40",0.0,14.2,76.4,1017.5,334.2,1.2,2.2,111.2,0.35,10.2,13.0,"10:31:20",1
"18/11/29","10:50",0.0,14.3,73.4,1017.5,263.7,1.2,2.0,242.1,0.35,9.7,13.3,"10:48:16",1
"18/11/29","11:00",0.0,14.5,69.4,1018.2,243.8,1.2,3.2,237.2,0.30,9.0,13.4,"10:50:56",1
"18/11/29","11:10",0.0,14.2,67.3,1018.2,263.1,1.1,2.2,261.3,0.22,8.3,13.7,"11:00:48",1
"18/11/29","11:20",0.0,13.9,69.2,1018.7,254.6,1.0,2.9,229.4,0.22,8.4,13.8,"11:16:48",1
"18/11/29","11:30",0.0,13.8,67.8,1018.0,243.7,1.8,3.4,239.6,0.23,8.0,13.8,"11:28:16",1
"18/11/29","11:40",0.0,14.3,66.1,1018.0,234.6,1.8,2.9,226.3,0.26,8.1,13.8,"11:32:40",1
"18/11/29","11:50",0.0,14.3,61.8,1017.3,279.3,1.1,1.9,299.3,0.20,7.1,14.0,"11:42:16",1
"18/11/29","12:00",0.0,14.3,65.0,1017.3,307.6,1.8,3.9,337.2,0.27,7.9,14.2,"11:58:00",1
"18/11/29","12:10",0.0,14.7,62.9,1017.1,270.4,1.6,3.9,336.0,0.44,7.8,14.2,"12:04:08",1
"18/11/29","12:20",0.0,15.2,61.5,1016.8,225.9,1.1,2.7,225.1,0.43,7.9,14.5,"12:11:04",1
"18/11/29","12:30",0.0,15.2,59.9,1016.4,263.7,1.2,3.7,335.7,0.27,7.5,14.7,"12:29:36",1
"18/11/29","12:40",0.0,15.4,57.3,1016.1,274.7,1.7,2.9,342.8,0.38,7.0,14.7,"12:30:16",1
"18/11/29","12:50",0.0,14.9,58.2,1016.4,288.6,2.2,4.7,332.7,0.23,6.8,15.0,"12:49:20",1
"18/11/29","13:00",0.0,15.3,56.3,1016.4,326.9,2.3,6.2,340.5,0.28,6.7,14.9,"12:57:36",1
"18/11/29","13:10",0.0,15.2,57.6,1016.1,329.1,2.1,4.4,343.4,0.21,6.9,14.9,"13:04:40",1
"18/11/29","13:20",0.0,15.2,58.8,1015.6,336.1,2.5,5.6,342.1,0.25,7.2,15.0,"13:14:40",1
"18/11/29","13:30",0.0,15.5,57.8,1015.9,339.8,3.4,5.6,339.0,0.32,7.3,15.1,"13:29:04",1
"18/11/29","13:40",0.0,16.1,55.2,1015.6,305.7,3.0,5.2,334.1,0.37,7.2,15.3,"13:30:02",1
"18/11/29","13:50",0.0,15.9,54.6,1015.9,314.2,2.3,3.9,332.4,0.39,6.8,15.3,"13:45:20",1
"18/11/29","14:00",0.0,15.5,55.2,1015.6,347.4,2.6,6.7,338.3,0.30,6.6,15.4,"13:59:20",1
"18/11/29","14:10",0.0,16.0,57.0,1015.9,344.8,2.7,6.8,342.7,0.29,7.5,15.4,"14:04:00",1
"18/11/29","14:20",0.0,15.9,55.3,1015.9,329.8,2.6,5.0,337.7,0.30,7.0,15.5,"14:10:56",1
"18/11/29","14:30",0.0,16.3,55.0,1015.6,340.6,2.2,5.0,342.4,0.28,7.3,15.3,"14:22:56",1
"18/11/29","14:40",0.0,15.5,56.1,1015.9,326.4,1.3,2.9,338.1,0.14,6.8,15.4,"14:30:02",1
"18/11/29","14:50",0.0,15.5,57.1,1016.1,337.1,1.6,3.2,351.8,0.15,7.1,15.5,"14:43:28",1
"18/11/29","15:00",0.0,15.9,56.6,1015.9,341.3,1.7,3.2,324.0,0.16,7.3,15.4,"14:58:16",1
"18/11/29","15:10",0.0,15.5,56.2,1015.6,331.3,1.8,4.7,339.9,0.14,6.9,15.6,"15:05:44",1
"18/11/29","15:20",0.0,15.7,54.6,1015.9,338.0,2.1,5.0,339.1,0.18,6.6,15.5,"15:11:20",1
"18/11/29","15:30",0.0,15.5,56.4,1015.9,343.8,2.3,3.9,323.9,0.17,6.9,15.5,"15:20:48",1
"18/11/29","15:40",0.0,15.1,57.2,1015.6,344.3,2.2,4.0,340.6,0.10,6.7,15.5,"15:34:48",1
"18/11/29","15:50",0.0,14.8,58.3,1016.1,343.2,1.8,4.2,344.3,0.07,6.7,15.3,"15:43:12",1
"18/11/29","16:00",0.0,14.6,57.7,1015.9,341.5,1.8,3.9,342.0,0.02,6.4,15.4,"15:59:22",1
"18/11/29","16:10",0.0,14.1,59.5,1016.4,333.4,2.1,3.6,346.2,0.01,6.4,15.2,"16:08:16",1
"18/11/29","16:20",0.0,13.8,61.4,1016.4,324.9,2.0,3.1,338.7,0.00,6.6,15.1,"16:19:44",1
"18/11/29","16:30",0.0,13.8,61.2,1016.1,340.0,1.8,4.0,344.3,0.00,6.5,14.8,"16:27:28",1
"18/11/29","16:40",0.0,13.8,61.9,1016.8,324.7,2.3,3.6,331.3,0.00,6.7,14.8,"16:30:08",1
"18/11/29","16:50",0.0,13.6,64.4,1016.6,330.9,1.8,2.9,340.6,0.00,7.1,14.7,"16:47:44",1
"18/11/29","17:00",0.0,13.2,65.5,1016.8,334.9,2.3,5.4,344.5,0.00,6.9,14.6,"16:52:16",1
"18/11/29","17:10",0.0,12.9,67.0,1017.1,342.0,2.0,4.0,339.8,0.00,7.0,14.6,"17:07:56",1
"18/11/29","17:20",0.0,12.4,67.3,1017.5,329.8,1.8,3.2,338.1,0.00,6.6,14.4,"17:14:38",1
"18/11/29","17:30",0.0,11.9,69.9,1017.1,315.8,1.7,2.6,337.4,0.00,6.6,14.2,"17:25:54",1
"18/11/29","17:40",0.0,11.4,71.1,1017.3,323.2,1.6,2.4,329.2,0.00,6.4,14.1,"17:38:54",1
"18/11/29","17:50",0.0,10.8,74.3,1017.3,330.5,1.6,2.2,335.4,0.00,6.5,14.0,"17:44:02",1
"18/11/29","18:00",0.0,10.0,76.4,1017.3,306.7,1.6,2.2,312.3,0.00,6.1,13.7,"17:58:24",1
"18/11/29","18:10",0.0,9.7,81.0,1017.5,324.8,1.5,2.6,340.4,0.00,6.6,13.8,"18:08:40",1
"18/11/29","18:20",0.0,9.3,82.7,1017.8,312.8,1.6,2.2,315.0,0.00,6.6,13.5,"18:11:28",1
"18/11/29","18:30",0.0,8.9,85.0,1017.5,299.1,1.3,1.9,316.8,0.00,6.6,13.3,"18:22:00",1
"18/11/29","18:40",0.0,8.6,85.9,1018.0,288.6,1.3,2.4,307.1,0.00,6.4,13.3,"18:36:16",1
"18/11/29","18:50",0.0,8.6,87.0,1018.0,316.0,1.1,2.1,318.4,0.00,6.6,13.2,"18:45:04",1
"18/11/29","19:00",0.0,8.3,87.9,1018.0,292.4,1.6,2.0,270.4,0.00,6.5,12.9,"18:57:20",1
"18/11/29","19:10",0.0,8.1,87.9,1018.0,296.4,1.6,2.4,307.1,0.00,6.3,13.0,"19:07:20",1
"18/11/29","19:20",0.0,8.0,89.4,1017.8,292.2,1.6,2.2,301.8,0.00,6.4,12.8,"19:10:08",1
"18/11/29","19:30",0.0,7.9,89.5,1018.0,302.5,2.0,2.5,317.9,0.00,6.3,12.8,"19:25:12",1
"18/11/29","19:40",0.0,7.9,90.0,1018.2,313.4,2.1,3.3,313.8,0.00,6.4,12.6,"19:32:32",1
"18/11/29","19:50",0.0,7.6,89.2,1017.8,304.0,1.7,2.6,314.5,0.00,6.0,12.6,"19:41:36",1
"18/11/29","20:00",0.0,7.3,90.4,1017.8,297.9,1.6,2.2,308.3,0.00,5.9,12.6,"19:55:36",1
"18/11/29","20:10",0.0,6.8,90.9,1018.0,291.2,1.6,2.9,315.7,0.00,5.5,12.3,"20:03:04",1
"18/11/29","20:20",0.0,6.6,91.1,1018.2,310.6,1.7,3.1,322.4,0.00,5.3,12.1,"20:14:24",1
"18/11/29","20:30",0.0,6.5,92.4,1018.2,303.7,1.8,2.8,321.8,0.00,5.4,11.9,"20:27:36",1
"18/11/29","20:40",0.0,6.7,93.5,1018.2,313.4,1.8,3.2,315.9,0.00,5.8,12.1,"20:37:20",1
"18/11/29","20:50",0.0,6.6,92.8,1018.0,306.6,1.7,2.4,321.7,0.00,5.6,11.9,"20:42:16",1
"18/11/29","21:00",0.0,6.4,93.3,1017.8,307.1,2.0,2.5,320.3,0.00,5.4,11.9,"20:57:44",1
"18/11/29","21:10",0.0,6.3,94.0,1018.2,302.6,1.7,2.4,317.7,0.00,5.4,12.0,"21:02:24",1
"18/11/29","21:20",0.0,6.5,94.3,1018.0,291.4,1.7,2.2,303.3,0.00,5.7,11.7,"21:11:52",1
"18/11/29","21:30",0.0,6.5,94.0,1018.2,312.8,1.6,2.1,318.1,0.00,5.6,11.7,"21:22:08",1
"18/11/29","21:40",0.0,6.3,94.3,1018.2,313.5,1.5,2.2,313.9,0.00,5.5,11.6,"21:37:20",1
"18/11/29","21:50",0.0,6.5,95.0,1018.2,317.6,1.5,2.1,318.3,0.00,5.8,11.5,"21:48:32",1
"18/11/29","22:00",0.0,7.0,94.7,1018.5,322.2,2.2,3.9,333.7,0.00,6.2,11.5,"21:55:04",1
"18/11/29","22:10",0.0,7.1,94.0,1018.5,321.2,3.4,4.9,334.9,0.00,6.2,11.2,"22:07:52",1
"18/11/29","22:20",0.0,7.2,93.2,1018.7,319.9,3.4,5.2,326.6,0.00,6.2,11.4,"22:11:04",1
"18/11/29","22:30",0.0,6.9,92.8,1018.2,318.4,1.6,3.3,337.7,0.00,5.9,11.2,"22:20:24",1
"18/11/29","22:40",0.0,6.6,92.7,1018.5,322.1,1.5,2.0,319.4,0.00,5.5,11.3,"22:31:12",1
"18/11/29","22:50",0.0,6.2,92.9,1018.5,303.3,1.5,2.4,308.9,0.00,5.2,11.3,"22:40:16",1
"18/11/29","23:00",0.0,5.9,92.9,1018.7,309.7,1.6,2.2,315.5,0.00,4.9,11.2,"22:56:16",1
"18/11/29","23:10",0.0,5.8,93.8,1018.2,309.6,0.8,1.8,316.0,0.00,4.9,11.0,"23:05:52",1
"18/11/29","23:20",0.0,5.6,93.6,1018.2,309.0,1.7,2.6,330.6,0.00,4.7,11.1,"23:16:48",1
"18/11/29","23:30",0.0,5.3,94.0,1018.5,304.1,1.3,1.9,316.3,0.00,4.5,10.9,"23:24:56",1
"18/11/29","23:40",0.0,5.1,94.0,1018.0,310.4,1.3,2.5,320.2,0.00,4.3,10.9,"23:36:16",1
"18/11/29","23:50",0.0,5.1,94.5,1018.0,312.5,1.6,2.4,323.9,0.00,4.3,10.7,"23:43:52",1
"18/11/29","24:00",0.0,4.6,94.3,1018.0,292.2,1.3,2.4,324.4,0.00,3.8,10.6,"23:50:48",1
